DELTA 1 DEB, 21370

Orbit data source: Space-Track

DELTA 1 DEB, 21370 is space debris in SSO originally from a launch on Thu, 12 Jun 1975 UTC launched from the Air Force Western Test Range (AFWTR). Debris objects in space refer to the collection of defunct objects orbiting the Earth. Examples of debris include non-operational satellites, rocket bodies, and fragments generated from explosions, collisions, or faulty payload assembly.

Loading next visibility...
Identifier
21370, 1975-052CQ
Orbit
SSO
Country
Flag of USUS
Related business
Manufacturer
Unknown
Mission
Spacecraft
Bus & Motor
Unknown
Mass
Unknown
Launch date (UTC)
1975-06-12 (50 years ago)
Launch vehicle
Unknown
Launch site
Air Force Western Test Range (AFWTR)
Object type
Payload
Rocket body
Debris
Shape & HBR
Unknown shape, 0.1 m
Radar Cross Section
Small (<0.1 m²)

Expand to show TLE details & history
Last TLE update: 13 hours ago

TLE from 13 hours ago
0 DELTA 1 DEB
1 21370U 75052CQ  25309.12911318 -.00000005  00000-0  80222-4 0  9991
2 21370  99.8969  74.4319 0079737   7.4696 166.4732 13.28162866669977
Epoch: 2025-11-05T03:05Z
TLE epoch observation values (Epoch: 2025-11-05T03:05:55.378Z)
Latitude
5.68162°
Longitude
164.33452°
Altitude
1,214.32 km
Speed
7.219 km/s
True Right ascension
17h 01m 41s
True Declination
5° 38' 60"
Sunlit
Object was in daylight at epoch
Visualization orbit readout
Latitude
Unknown
Longitude
Unknown
Altitude
Unknown
Speed
Unknown
Apparent Right ascension
Unknown
Apparent Declination
Unknown
Sunlit
N/A
Visualization observer readout
Local Sidereal Time
11:41:23
Azimuth
Unknown
Elevation
Unknown
Doppler factor
Unknown
Orbital elements
Apogee altitude
1,211.077 km
Perigee altitude
1,091.006 km
Semi-major axis
7,529.178 km
Eccentricity
0.00797
Inclination
99.8969°
RAAN
74.4319°
Arg. of periapsis
7.4696°
True anomaly
166.68487°
Mean anomaly
166.4732°
Eccentric anomaly
166.57924°
Mean motion
3.32217 °/min
Orbital period
108.36 mins
BSTAR
0.000080222
Loading maneuver chart data...
Computing Atmospheric mass density...
Loading historical data...
Loading historical data...
Loading historical data...
Loading historical data...
Loading historical data...
Loading historical data...
Loading historical data...

Documentation

Showing up to 5 results
|